NOAA 17 DEB

Satellite information

Favourite Embed

Satellite Type and Status

DEBRISIN ORBIT

Key statistics

Satellite NOAA 17 DEB at a glance.

Uptime

8475

Days in orbit

Revolutions

≈ 14.5

Per day

Orbit

SSO

Sun Synchronous Orbit

Inclination

98.8

Latest

Satellite identification and parameters

Extended collection of information and parameters for NOAA 17 DEB.

Object identification

Identified? True

Debris? True

Object name: NOAA 17 DEB

International designator: 2002-032Z

Object number (NORAD): 48184

Object ID (CCSDS): 48184

Country: UNITED STATES OF AMERICA (US)

Current information (Y/N): Y

RCS size: SMALL

Orbital parameters

Period: 99.526 minutes

Inclination: 98.8139 deg

SMA: 7114.064 km

Apoapsis: 747.729 km

Periapsis: 724.128 km

RAAN: 228.5965 deg

Eccentricy: 0.0016588

Argument of periapsis: 47.9215 deg

Mean anomaly: 312.3384 deg

Mean motion: 14.46858802 rev/day

Mean motion (dot): 0.00015565 rev/day2

B* drag term: 0.0042883838 1/REarth

Two-line elements (TLE)

Creation date: Sept. 4, 2025, 4:29 a.m.

Reference frame: TEME

Reference center: EARTH

Epoch: Sept. 3, 2025, 4:23 p.m. UTC

TLE line 0: 0 NOAA 17 DEB

TLE line 1: 1 48184U 02032Z 25246.68322848 .00015565 00000-0 42884-2 0 9992

TLE line 2: 2 48184 98.8139 228.5965 0016588 47.9215 312.3384 14.46858802231262

Live tracking on map

Real-time ground track for satellite NOAA 17 DEB.

In-orbit conjunctions

A list of the most updated potential collisions computed for object NOAA 17 DEB.

Target Orbit TCA Probability of collision Miss distance Type
COSMOS 1140 LEO 2025-02-23 15:50:53 0.000183164 284.0 (m) PAYLOAD
FENGYUN 1C DEB SSO 2024-09-25 13:04:48 0.0008682436 34.0 (m) DEBRIS
COSMOS 1354 LEO 2024-09-15 08:54:31 0.0003518656 99.0 (m) PAYLOAD

Associated space launch

NOAA M carried weather imagers and microwave and infrared sounders, as well as a SARSAT search-and-rescue package. It had an on-orbit mass of 1475 kg.

NOAA 17 DEB was lifted into orbit during the mission ‘Titan II SLV | NOAA 17’, on board a Titan II SLV space rocket.

The launch took place on June 24, 2002, 6:23 p.m. from Space Launch Complex 4W.

For more information about the launch, click the button.

Launch to space Titan II SLV | NOAA 17
Titan II SLV | NOAA 17

Agency: N/A

Status: Launch Successful

Launch date: June 24, 2002, 6:23 p.m. UTC

Rocket: Titan II SLV

Launch pad: Space Launch Complex 4W

Location: Vandenberg SFB, CA, USA

...

Latest news about this satellite

There are no fresh news available about this satellite. Check back as we update our databases every day.


Newsletter sign-up

Weekly statistics, charts and insights to help you stay on top of the space industry.